[[{"header":{"parameterUnit":"m.s-1","parameterCategory":1,"la1":30.2991,"la2":30.254,"lo1":-89.0895,"lo2":-89.0444,"dy":0.0017,"dx":0.0017,"nx":28,"ny":28,"refTime":"2023-04-17T15:00:00:Z","depth":0,"parameterNumber":2,"parameterNumberName":"U-component_of_WINDS"},"data":[0,0,0,0,0,0,0,0,0,0,0,0,0,0,0,0,0,0,0,0,0,0,0,0,0,0,0,0,0,0,0,0,0,0,0,0,0,0,0,0,0,0,0,0,0,0,0,0,0,0,0,0,0,0,0,0,0,0,-4.1491,-4.1491,0,-4.1512,-4.1512,-4.1512,-4.1412,-4.1409,-4.1406,-4.1403,-4.1425,-4.1429,-4.1432,0,0,0,0,0,0,0,0,0,0,0,0,0,-4.1363,-4.1366,-4.1491,-4.1491,-4.1491,-4.1512,-4.1512,-4.1512,-4.1412,-4.1409,-4.1405,-4.1402,-4.1424,-4.1428,-4.1432,0,0,0,0,0,0,0,0,0,0,0,0,0,-4.1405,-4.1367,-4.1491,-4.1444,-4.144,-4.1512,-4.1512,-4.1512,-4.1413,-4.1409,-4.1404,-4.14,-4.1423,-4.1428,-4.1433,-4.1551,0,0,-4.1448,-4.145,0,0,0,0,0,0,0,0,-4.1403,-4.141,-4.145,-4.1447,-4.1443,-4.1455,-4.1475,-4.1525,-4.1414,-4.1423,-4.1403,-4.1398,-4.1439,-4.1442,-4.1456,-4.1552,-4.1553,-4.1448,-4.1451,-4.1453,-4.1455,0,0,0,0,0,0,0,-4.14,-4.1408,-4.1499,-4.1451,-4.1447,-4.1421,-4.1423,-4.1484,-4.1455,-4.1422,-4.1415,-4.1419,-4.1436,-4.1451,-4.1455,-4.1553,-4.1448,-4.1453,-4.1456,-4.1458,-4.1745,-4.1749,0,0,0,0,0,0,-4.1403,-4.1407,-4.1498,-4.15,-4.1412,-4.1427,-4.1429,-4.1455,-4.1454,-4.145,-4.1422,-4.1414,-4.1445,-4.145,-4.1456,-4.1592,-4.1453,-4.1458,-4.1461,-4.174,-4.1746,-4.1751,0,0,0,0,0,0,-4.1401,-4.1412,-4.1497,-4.1451,-4.146,-4.1434,-4.1465,-4.1458,-4.1473,-4.1455,-4.1449,-4.1443,-4.1442,-4.1449,-4.1527,-4.1591,-4.146,-4.1465,-4.1735,-4.1742,-4.1748,-4.1867,0,0,0,0,0,0,-4.1398,-4.1412,-4.1457,-4.1453,-4.1463,-4.1569,-4.1469,-4.1462,-4.1482,-4.1471,-4.1473,-4.1469,-4.1439,-4.1521,-4.1532,-4.1596,-4.1469,-4.1729,-4.1738,-4.1746,-4.1857,-4.1877,-4.1894,0,0,0,0,0,-4.1394,-4.149,-4.146,-4.1472,-4.1518,-4.1573,-4.1579,-4.1542,-4.1488,-4.1532,-4.152,-4.1469,-4.1583,-4.1529,-4.1542,-4.1608,-4.1725,-4.1735,-4.1745,-4.1849,-4.1873,-4.1894,0,0,0,0,0,0,-4.1503,-4.1489,-4.1455,-4.1553,-4.1565,-4.1556,-4.1611,-4.1569,-4.1597,-4.1586,-4.1539,-4.154,-4.1626,-4.1625,-4.1566,-4.1721,-4.1644,-4.1658,-4.1718,-4.1741,-4.176,-4.1757,-4.1473,0,0,0,0,0,-4.1539,-4.1585,-4.1569,-4.1658,-4.1665,-4.1638,-4.166,-4.1631,-4.1641,-4.1645,-4.1639,-4.1651,-4.1689,-4.1715,-4.175,-4.1857,-4.1855,-4.1908,-4.1927,-4.1942,-4.1954,-4.2008,-4.2031,-4.1785,-4.1785,-4.1785,0,0,-4.1613,-4.1611,-4.1642,-4.168,-4.1685,-4.1733,-4.1642,-4.1697,-4.1732,-4.1654,-4.1727,-4.1723,-4.1733,-4.1826,-4.1866,-4.1827,-4.2021,-4.1955,-4.1968,-4.1971,-4.2021,-4.2044,-4.2065,-4.1792,-4.1791,-4.179,0,0,-4.1772,-4.1776,-4.1848,-4.1855,-4.1865,-4.1845,-4.1863,-4.186,-4.1854,-4.1927,-4.1868,-4.1909,-4.1977,-4.1986,-4.1999,-4.216,-4.2114,-4.2173,-4.2269,-4.2323,-4.2342,-4.2359,-4.2414,-4.2435,-4.2185,-4.2186,-4.2186,0,-4.1862,-4.1932,-4.1891,-4.1949,-4.1966,-4.1897,-4.197,-4.1979,-4.2,-4.2013,-4.1969,-4.2051,-4.2054,-4.2146,-4.2185,-4.22,-4.2217,-4.2172,-4.2343,-4.2359,-4.2374,-4.2427,-4.2448,-4.2192,-4.2192,-4.2191,-4.219,0,-4.2042,-4.2091,-4.2149,-4.2169,-4.2193,-4.2258,-4.2227,-4.2256,-4.2224,-4.221,-4.2284,-4.2284,-4.2316,-4.2336,-4.2307,-4.2425,-4.24,-4.2351,-4.2272,-4.2405,-4.2453,-4.2473,-4.2202,-4.22,-4.2198,-4.2196,0,0,-4.227,-4.2266,-4.2288,-4.2295,-4.23,-4.2337,-4.2399,-4.243,-4.2455,-4.2472,-4.2521,-4.2579,-4.2533,-4.2548,-4.2519,-4.2566,-4.2691,-4.251,-4.251,-4.2542,-4.2819,-4.2855,-4.2879,-4.2661,-4.2665,-4.2668,-4.2817,0,-4.2423,-4.2528,-4.2492,-4.2599,-4.2642,-4.2577,-4.2631,-4.264,-4.2628,-4.2663,-4.2649,-4.269,-4.2627,-4.2635,-4.268,-4.2667,-4.2746,-4.2656,-4.2706,-4.2708,-4.2703,-4.2904,-4.2943,-4.3084,-4.2836,-4.2839,-4.2842,0,-4.2617,-4.2639,-4.275,-4.2746,-4.2763,-4.2811,-4.2836,-4.2871,-4.2879,-4.2867,-4.2884,-4.2844,-4.2903,-4.2826,-4.2907,-4.2846,-4.2864,-4.2861,-4.2866,-4.2868,-4.2782,-4.291,-4.3128,-4.3149,-4.2872,-4.2869,-4.2867,0,-4.2769,-4.2828,-4.2901,-4.291,-4.2907,-4.2942,-4.2943,-4.2947,-4.2967,-4.2989,-4.3001,-4.3031,-4.3046,-4.3069,-4.3038,-4.2985,-4.3122,-4.3043,-4.3113,-4.3113,-4.3143,-4.3141,-4.3366,-4.3159,-4.3158,-4.3158,-4.3158,0,-4.2943,-4.3013,-4.2969,-4.3014,-4.3089,-4.3048,-4.3124,-4.3117,-4.3121,-4.3163,-4.3109,-4.315,-4.3107,-4.3143,-4.3119,-4.3188,-4.3197,-4.3187,-4.318,-4.3191,-4.3192,-4.3201,-4.319,-4.3164,-4.3162,-4.3161,-4.316,0,-4.3126,-4.31,-4.3174,-4.3165,-4.3165,-4.3221,-4.3213,-4.3253,-4.3237,-4.3291,-4.3301,-4.3276,-4.3316,-4.3287,-4.3327,-4.3311,-4.3401,-4.3381,-4.3398,-4.3392,-4.3462,-4.3455,-4.3699,-4.3728,-4.3504,-4.3507,-4.3508,0,-4.3238,-4.3289,-4.3286,-4.3309,-4.3313,-4.3353,-4.3373,-4.3334,-4.3357,-4.3369,-4.3408,-4.3443,-4.3469,-4.3536,-4.3521,-4.3551,-4.353,-4.3613,-4.3534,-4.3543,-4.3528,-4.3525,-4.3529,-4.3628,-4.3631,-4.3633,-4.3635,0,-4.3438,-4.3422,-4.3453,-4.3479,-4.3504,-4.3523,-4.3538,-4.3561,-4.3521,-4.355,-4.3589,-4.3609,-4.3649,-4.3684,-4.3709,-4.3709,-4.3665,-4.366,-4.3677,-4.3688,-4.3695,-4.369,-4.344,-4.3654,-4.3652,-4.3651,-4.365,-4.3649,-4.3587,-4.3629,-4.3633,-4.3668,-4.3675,-4.3689,-4.3726,-4.3715,-4.3747,-4.3776,-4.3751,-4.3798,-4.3804,-4.3831,-4.3837,-4.3873,-4.3839,-4.3864,-4.387,-4.3877,-4.3886,-4.3691,-4.3878,-4.3877,-4.3876,-4.3876,-4.3876,0,-4.3783,-4.3782,-4.3815,-4.3836,-4.3864,-4.3821,-4.3834,-4.386,-4.3902,-4.3911,-4.3937,-4.3982,-4.4015,-4.4003,-4.4032,-4.4063,-4.4044,-4.4072,-4.4068,-4.4069,-4.3916,-4.3897,-4.4087,-4.4087,-4.4087,-4.4087,-4.4087,-4.4087,-4.3888,-4.3956,-4.394,-4.4011,-4.4009,-4.4054,-4.4065,-4.4078,-4.4084,-4.4136,-4.4164,-4.4155,-4.4155,-4.4184,-4.4212,-4.4208,-4.422,-4.4255,-4.4244,-4.4101,-4.408,-4.406,-4.4041,-4.4259,-4.4259,-4.4393,-4.4394,-4.4395]},{"header":{"parameterUnit":"m.s-1","parameterCategory":1,"la1":30.2991,"la2":30.254,"lo1":-89.0895,"lo2":-89.0444,"dy":0.0017,"dx":0.0017,"nx":28,"ny":28,"refTime":"2023-04-17T15:00:00:Z","depth":0,"parameterNumber":3,"parameterNumberName":"V-component_of_WINDS"},"data":[0,0,0,0,0,0,0,0,0,0,0,0,0,0,0,0,0,0,0,0,0,0,0,0,0,0,0,0,0,0,0,0,0,0,0,0,0,0,0,0,0,0,0,0,0,0,0,0,0,0,0,0,0,0,0,0,0,0,1.0278,1.0277,0,1.0191,1.019,1.0189,1.0112,1.0111,1.011,1.0109,1.0017,1.0015,1.0013,0,0,0,0,0,0,0,0,0,0,0,0,0,1.0374,1.0373,1.0278,1.0277,1.0275,1.0191,1.019,1.0189,1.0112,1.0111,1.011,1.0109,1.0017,1.0015,1.0013,0,0,0,0,0,0,0,0,0,0,0,0,0,1.0314,1.0372,1.0278,1.0227,1.0222,1.0191,1.019,1.0188,1.0112,1.0111,1.0109,1.0108,1.0018,1.0015,1.0013,1.0025,0,0,1.0006,1.0005,0,0,0,0,0,0,0,0,1.0318,1.0311,1.0236,1.023,1.0224,1.0161,1.019,1.0133,1.0112,1.0154,1.0109,1.0107,1.0065,1.0059,1.0046,1.0021,1.0017,1.0005,1.0004,1.0003,1.0002,0,0,0,0,0,0,0,1.0322,1.0314,1.0243,1.0235,1.0228,1.0208,1.0198,1.0179,1.0118,1.015,1.0144,1.0135,1.0062,1.0048,1.0043,1.0015,1.0005,1.0003,1.0002,1.0001,0.9996,0.9997,0,0,0,0,0,0,1.0334,1.0318,1.0246,1.0241,1.0269,1.0207,1.0196,1.0182,1.0118,1.0107,1.0136,1.0132,1.0053,1.0046,1.0039,1.0049,1.0003,1.0001,0.9999,0.9994,0.9996,0.9998,0,0,0,0,0,0,1.0337,1.0329,1.0249,1.0278,1.0266,1.0207,1.0192,1.0181,1.0167,1.0108,1.0096,1.0133,1.0052,1.0043,1.0029,1.0045,0.9999,0.9997,0.9993,0.9995,0.9997,1.0069,0,0,0,0,0,0,1.034,1.033,1.0334,1.0278,1.0265,1.0242,1.0193,1.0181,1.0164,1.0157,1.0102,1.0091,1.005,1.0033,1.0027,1.0041,0.9995,0.9991,0.9994,0.9996,1.0065,1.0073,1.008,0,0,0,0,0,1.0344,1.0357,1.0335,1.0327,1.0269,1.0243,1.0235,1.0188,1.0165,1.0169,1.0131,1.0093,1.0044,1.0033,1.0025,1.0038,0.999,0.9993,0.9996,1.0061,1.0071,1.008,0,0,0,0,0,0,1.0415,1.0349,1.0324,1.032,1.0288,1.023,1.0233,1.02,1.0173,1.0168,1.0109,1.0097,1.0091,1.0063,1.0051,1.0046,1.0012,1.0014,1.0065,1.0074,1.0081,1.0088,0.9993,0,0,0,0,0,1.0431,1.0416,1.0358,1.0361,1.0346,1.0293,1.0279,1.0246,1.021,1.0196,1.0156,1.0122,1.0099,1.0085,1.006,1.0061,1.0047,1.0066,1.0073,1.008,1.0082,1.008,1.0088,1.0007,1.0007,1.0007,0,0,1.0462,1.0424,1.0418,1.0374,1.0345,1.033,1.0282,1.0268,1.0256,1.0193,1.0178,1.0149,1.0106,1.01,1.0096,1.0077,1.0101,1.0084,1.009,1.0088,1.0084,1.0092,1.0099,1.0009,1.0009,1.0009,0,0,1.0512,1.0482,1.0481,1.0454,1.0411,1.0376,1.0376,1.0323,1.0302,1.0286,1.0239,1.0224,1.0185,1.0157,1.0138,1.0179,1.0143,1.0172,1.0212,1.0211,1.0218,1.0223,1.0237,1.0243,1.0174,1.0175,1.0175,0,1.0557,1.0533,1.0484,1.0474,1.0456,1.04,1.0398,1.0373,1.0325,1.0313,1.0293,1.0244,1.0212,1.0198,1.0209,1.0195,1.0193,1.0178,1.0221,1.0226,1.023,1.0243,1.0249,1.0178,1.0178,1.0178,1.0177,0,1.059,1.0574,1.0578,1.0535,1.0517,1.0511,1.046,1.0448,1.0417,1.0383,1.0368,1.0328,1.0294,1.0289,1.0257,1.0271,1.0261,1.0232,1.0196,1.0242,1.0254,1.0258,1.0184,1.0183,1.0181,1.018,0,0,1.0681,1.0612,1.0614,1.0594,1.0543,1.053,1.0521,1.049,1.0481,1.0449,1.044,1.0409,1.0382,1.0361,1.0326,1.0325,1.036,1.0296,1.0294,1.0309,1.0373,1.0395,1.0402,1.0337,1.0338,1.0338,1.0377,0,1.0723,1.0705,1.0661,1.0657,1.0642,1.0589,1.0581,1.0549,1.0518,1.05,1.0465,1.0444,1.0411,1.0397,1.0394,1.0357,1.0372,1.0353,1.0327,1.0327,1.0339,1.0408,1.0431,1.0469,1.0381,1.0382,1.0382,0,1.0769,1.0742,1.0737,1.0688,1.068,1.0674,1.0642,1.0626,1.0589,1.0566,1.0543,1.0504,1.0492,1.046,1.0441,1.0429,1.0416,1.0396,1.0396,1.0391,1.0357,1.0405,1.048,1.0486,1.0389,1.0388,1.0388,0,1.0836,1.0799,1.0791,1.0775,1.0718,1.0715,1.0691,1.0653,1.0637,1.0609,1.0598,1.0568,1.0552,1.0529,1.0484,1.0465,1.047,1.0434,1.0451,1.0452,1.0453,1.0454,1.0528,1.0446,1.0446,1.0446,1.0446,0,1.0887,1.0886,1.0821,1.0816,1.0813,1.0762,1.076,1.0731,1.0697,1.0685,1.0637,1.0627,1.0568,1.055,1.0515,1.0505,1.0498,1.0478,1.0469,1.0483,1.0485,1.0472,1.0469,1.0447,1.0447,1.0446,1.0446,0,1.0962,1.0918,1.0906,1.0854,1.084,1.084,1.0795,1.0788,1.0755,1.074,1.0733,1.0681,1.0658,1.061,1.0574,1.055,1.0548,1.0531,1.0562,1.0555,1.0574,1.0573,1.0642,1.0649,1.0564,1.0564,1.0565,0,1.0997,1.0995,1.0943,1.0932,1.091,1.0893,1.0877,1.0827,1.0812,1.077,1.0768,1.0742,1.0718,1.0684,1.0642,1.0614,1.0596,1.0622,1.0591,1.0605,1.0596,1.0597,1.0596,1.0629,1.063,1.0631,1.0632,0,1.1064,1.1043,1.1022,1.0995,1.0977,1.0952,1.0925,1.0919,1.0862,1.0848,1.0825,1.0807,1.077,1.0745,1.0711,1.0685,1.0649,1.0642,1.0644,1.0658,1.0675,1.0666,1.058,1.064,1.0639,1.0639,1.0638,1.0638,1.112,1.1116,1.1079,1.1057,1.1032,1.1008,1.0999,1.0965,1.0945,1.0912,1.0884,1.0864,1.0826,1.0777,1.0754,1.0736,1.0719,1.0722,1.0723,1.0724,1.073,1.0679,1.073,1.073,1.0729,1.0729,1.0729,0,1.1184,1.1158,1.1139,1.1103,1.1087,1.1056,1.1024,1.1012,1.0995,1.0964,1.0942,1.0915,1.089,1.0847,1.0818,1.0813,1.0796,1.0807,1.0806,1.0801,1.0747,1.0748,1.0821,1.0821,1.0821,1.0821,1.0821,1.0821,1.1216,1.1207,1.1182,1.1161,1.1134,1.1114,1.1099,1.1076,1.1052,1.1025,1.1004,1.0976,1.094,1.0909,1.0884,1.0872,1.0864,1.088,1.0863,1.0813,1.0805,1.0796,1.0797,1.0879,1.0879,1.0918,1.0918,1.0918]}]]